Chicago Executive, IL

5:49 PM CDT on June 27, 2017 (GMT -0500)
Chicago Executive

Weather History for KPWK - July, 2013

Change the Weather History Date:

Friday, July 19, 2013

  Actual Average Record
Temperature  
Mean Temperature 85 °F 74 °F  
Max Temperature 97 °F 84 °F 97 °F (2013)
Min Temperature 73 °F 64 °F 54 °F (2003)
Degree Days  
Heating Degree Days 0 0  
Month to date heating degree days 1 0  
Since 1 June heating degree days 58 52  
Since 1 July heating degree days 1 0  
Cooling Degree Days 20 9  
Month to date cooling degree days 212 165  
Year to date cooling degree days 444 361  
Since 1 June cooling degree days 363 319  
Growing Degree Days 35 (Base 50)    
Moisture  
Dew Point 69 °F    
Average Humidity 62    
Maximum Humidity 84    
Minimum Humidity 35    
Precipitation  
Precipitation 0.48 in 0.12 in 0.79 in (2008)
Month to date precipitation 0.83 1.91  
Year to date precipitation 17.77 17.11  
Sea Level Pressure  
Sea Level Pressure 29.84 in    
Wind  
Wind Speed 12 mph (WSW)    
Max Wind Speed 29 mph    
Max Gust Speed 39 mph    
Visibility 9 miles    
Events Rain , Thunderstorm    
T = Trace of Precipitation, MM = Missing Value Source: NWS Daily Summary

Daily Weather History Graph

Daily Weather History Graph

Search for Another Location

Airport or City:

Trip Planner

Search our weather history database for the weather conditions in past years. The results will help you decide how hot, cold, wet, or windy it might be!

Date:

Astronomy

Jul. 19, 2013 Rise Set
Actual Time 5:32 AM CDT 8:22 PM CDT
Civil Twilight 4:59 AM CDT 8:55 PM CDT
Nautical Twilight 4:17 AM CDT 9:37 PM CDT
Astronomical Twilight 3:29 AM CDT 10:25 PM CDT
Moon 5:24 PM CDT (7/19) 2:13 AM CDT (7/19)
Length of Visible Light 15h 56m
Length of Day
14h 50m
Waxing Gibbous, 87% of the Moon is Illuminated
Jul 19
Waxing Gibbous
Jul 22
Full
Jul 29
Last Quarter
Aug 6
New
Aug 14
First Quarter

Hourly Weather History & Observations

Time (CDT) Temp. Heat Index Dew Point Humidity Pressure Visibility Wind Dir Wind Speed Gust Speed Precip Events Conditions
12:52 AM 84.0 °F 90.2 °F 73.0 °F 69% 29.94 in 10.0 mi SSW 8.1 mph - N/A   Clear
1:52 AM 84.0 °F 89.6 °F 72.0 °F 67% 29.93 in 10.0 mi SW 8.1 mph - N/A   Clear
2:52 AM 82.9 °F 87.5 °F 71.1 °F 67% 29.91 in 10.0 mi SW 9.2 mph - N/A   Clear
3:52 AM 82.9 °F 87.5 °F 71.1 °F 67% 29.89 in 10.0 mi SW 8.1 mph - N/A   Clear
4:52 AM 82.0 °F 85.9 °F 70.0 °F 67% 29.88 in 10.0 mi SW 9.2 mph - N/A   Clear
5:52 AM 82.0 °F 85.9 °F 70.0 °F 67% 29.88 in 10.0 mi SW 9.2 mph - N/A   Clear
6:52 AM 82.9 °F 87.0 °F 70.0 °F 65% 29.88 in 10.0 mi SW 8.1 mph - N/A   Clear
7:52 AM 84.0 °F 89.0 °F 71.1 °F 65% 29.89 in 10.0 mi WSW 11.5 mph 18.4 mph N/A   Clear
8:52 AM 87.1 °F 92.0 °F 70.0 °F 57% 29.89 in 10.0 mi SW 15.0 mph 19.6 mph N/A   Clear
9:52 AM 91.0 °F 95.6 °F 69.1 °F 48% 29.88 in 10.0 mi WSW 10.4 mph 24.2 mph N/A   Clear
10:52 AM 93.0 °F 97.9 °F 69.1 °F 45% 29.86 in 10.0 mi WSW 16.1 mph 21.9 mph N/A   Clear
11:52 AM 95.0 °F 100.7 °F 69.1 °F 43% 29.84 in 10.0 mi WSW 17.3 mph 23.0 mph N/A   Clear
12:52 PM 95.0 °F 97.9 °F 66.0 °F 38% 29.82 in 10.0 mi WSW 12.7 mph 27.6 mph N/A   Clear
1:52 PM 97.0 °F 101.0 °F 66.9 °F 37% 29.81 in 10.0 mi WSW 18.4 mph 27.6 mph N/A   Clear
2:52 PM 96.1 °F 98.3 °F 64.0 °F 35% 29.79 in 10.0 mi WSW 20.7 mph 38.0 mph N/A   Clear
3:52 PM 96.1 °F 98.8 °F 64.9 °F 36% 29.77 in 10.0 mi SW 18.4 mph 29.9 mph N/A   Clear
4:52 PM 93.9 °F 97.0 °F 66.0 °F 40% 29.77 in 10.0 mi WSW 17.3 mph 28.8 mph N/A   Clear
5:52 PM 93.9 °F 98.6 °F 68.0 °F 43% 29.76 in 10.0 mi WSW 18.4 mph 29.9 mph N/A   Clear
6:52 PM 93.0 °F 97.4 °F 68.0 °F 44% 29.76 in 10.0 mi WSW 13.8 mph 21.9 mph N/A   Clear
7:52 PM 91.0 °F 95.6 °F 69.1 °F 48% 29.75 in 10.0 mi WSW 13.8 mph 21.9 mph N/A Thunderstorm Clear
8:48 PM 82.4 °F 88.2 °F 73.4 °F 74% 29.79 in 10.0 mi NNW 12.7 mph - 0.00 in Rain , Thunderstorm Light Thunderstorms and Rain
8:52 PM 82.0 °F 87.4 °F 73.0 °F 74% 29.77 in 9.0 mi NNW 9.2 mph - 0.00 in Rain , Thunderstorm Light Rain
9:28 PM 75.2 °F - 69.8 °F 83% 29.84 in 1.8 mi West 25.3 mph 39.1 mph 0.22 in Rain , Thunderstorm Heavy Thunderstorms and Rain
9:46 PM 73.4 °F - 66.2 °F 78% 29.85 in 3.0 mi SSW 13.8 mph 34.5 mph 0.44 in Rain , Thunderstorm Light Thunderstorms and Rain
9:52 PM 73.9 °F - 66.0 °F 76% 29.82 in 9.0 mi South 16.1 mph 24.2 mph 0.45 in Rain , Thunderstorm Light Thunderstorms and Rain
9:59 PM 73.4 °F - 66.2 °F 78% 29.83 in 10.0 mi South 10.4 mph - 0.00 in Rain , Thunderstorm Light Rain
10:22 PM 73.4 °F - 68.0 °F 83% 29.83 in 10.0 mi Calm Calm - 0.00 in   Partly Cloudy
10:42 PM 75.2 °F - 69.8 °F 83% 29.83 in 10.0 mi WSW 4.6 mph - 0.00 in Thunderstorm Scattered Clouds
10:52 PM 75.0 °F - 69.1 °F 82% 29.82 in 10.0 mi SW 5.8 mph - 0.00 in Thunderstorm Mostly Cloudy
11:20 PM 75.2 °F - 69.8 °F 83% 29.83 in 10.0 mi Variable 3.5 mph - 0.03 in   Mostly Cloudy
11:52 PM 75.0 °F - 70.0 °F 84% 29.81 in 10.0 mi WNW 3.5 mph - 0.03 in   Scattered Clouds